When you browse on this site, cookies collect data to enhance your experience and personalize the content and advertising you see.
Visit our Privacy Policy to learn more. By continuing to use the site, you agree to this use of cookies and data.
  • In Österreich
  • Länderverzeichnis
  • Für 7 Tage
  • Wassertemperatur
  • Wetterkarte
  • News
  • Widgets
  • user-avatar
    Anmelden

    Stündliche Wetter Energetik

    Heute, 29 Mai, Freitag

    Zeit Temperatur Niederschläge Wind Luftdruck Luftfeuchtigkeit
    00:00 +21°C° 0.1 mm 3 m/S 737 mmHg 57%
    01:00 +20°C° 0.1 mm 3 m/S 737 mmHg 59%
    02:00 +20°C° 0 mm 4 m/S 737 mmHg 62%
    03:00 +19°C° 0 mm 4 m/S 737 mmHg 65%
    04:00 +18°C° 0 mm 3 m/S 737 mmHg 59%
    05:00 +19°C° 0 mm 4 m/S 737 mmHg 58%
    06:00 +20°C° 0 mm 5 m/S 737 mmHg 58%
    07:00 +21°C° 0 mm 7 m/S 737 mmHg 58%
    08:00 +22°C° 0 mm 7 m/S 737 mmHg 56%
    09:00 +24°C° 0 mm 7 m/S 737 mmHg 55%
    10:00 +26°C° 0 mm 8 m/S 737 mmHg 54%
    11:00 +27°C° 0 mm 8 m/S 738 mmHg 53%
    12:00 +28°C° 0 mm 8 m/S 738 mmHg 52%
    13:00 +28°C° 0 mm 8 m/S 738 mmHg 51%
    14:00 +28°C° 0 mm 8 m/S 737 mmHg 51%
    15:00 +28°C° 0 mm 8 m/S 737 mmHg 52%
    16:00 +28°C° 0 mm 9 m/S 737 mmHg 53%
    17:00 +27°C° 0 mm 8 m/S 737 mmHg 56%
    18:00 +24°C° 0 mm 8 m/S 737 mmHg 58%
    19:00 +23°C° 0 mm 8 m/S 738 mmHg 61%
    20:00 +22°C° 0 mm 7 m/S 738 mmHg 62%
    21:00 +20°C° 0 mm 7 m/S 738 mmHg 63%
    22:00 +18°C° 0 mm 7 m/S 738 mmHg 64%
    23:00 +18°C° 0 mm 7 m/S 738 mmHg 63%

    Morgen, 30 Mai, Samstag

    Zeit Temperatur Niederschläge Wind Luftdruck Luftfeuchtigkeit
    00:00 +17°C° 0 mm 7 m/S 738 mmHg 63%
    01:00 +17°C° 0 mm 6 m/S 738 mmHg 63%
    02:00 +16°C° 0 mm 6 m/S 738 mmHg 63%
    03:00 +16°C° 0 mm 6 m/S 738 mmHg 64%
    04:00 +15°C° 0 mm 5 m/S 738 mmHg 64%
    05:00 +16°C° 0 mm 6 m/S 738 mmHg 62%
    06:00 +17°C° 0 mm 6 m/S 738 mmHg 59%
    07:00 +19°C° 0 mm 6 m/S 738 mmHg 56%
    08:00 +21°C° 0 mm 7 m/S 738 mmHg 53%
    09:00 +22°C° 0 mm 7 m/S 738 mmHg 50%
    10:00 +24°C° 0 mm 7 m/S 738 mmHg 46%
    11:00 +26°C° 0 mm 7 m/S 738 mmHg 44%
    12:00 +28°C° 0 mm 6 m/S 738 mmHg 42%
    13:00 +29°C° 0 mm 6 m/S 738 mmHg 40%
    14:00 +29°C° 0 mm 5 m/S 737 mmHg 40%
    15:00 +30°C° 0 mm 5 m/S 737 mmHg 40%
    16:00 +30°C° 0 mm 4 m/S 737 mmHg 39%
    17:00 +30°C° 0 mm 4 m/S 736 mmHg 43%
    18:00 +29°C° 0 mm 3 m/S 736 mmHg 47%
    19:00 +28°C° 0 mm 3 m/S 736 mmHg 51%
    20:00 +26°C° 0 mm 3 m/S 736 mmHg 55%
    21:00 +23°C° 0 mm 4 m/S 736 mmHg 59%
    22:00 +22°C° 0 mm 4 m/S 736 mmHg 63%
    23:00 +21°C° 0 mm 4 m/S 735 mmHg 64%

    übermorgen, 31 Mai, Sonntag

    Zeit Temperatur Niederschläge Wind Luftdruck Luftfeuchtigkeit
    00:00 +20°C° 0 mm 3 m/S 735 mmHg 65%
    01:00 +19°C° 0 mm 3 m/S 735 mmHg 66%
    02:00 +19°C° 0 mm 3 m/S 734 mmHg 67%
    03:00 +18°C° 0 mm 2 m/S 734 mmHg 68%
    04:00 +18°C° 0 mm 2 m/S 733 mmHg 69%
    05:00 +20°C° 0 mm 2 m/S 733 mmHg 65%
    06:00 +21°C° 0 mm 2 m/S 733 mmHg 61%
    07:00 +24°C° 0 mm 2 m/S 733 mmHg 57%
    08:00 +26°C° 0 mm 3 m/S 732 mmHg 51%
    09:00 +29°C° 0 mm 5 m/S 732 mmHg 44%
    10:00 +32°C° 0 mm 6 m/S 732 mmHg 37%
    11:00 +32°C° 0 mm 7 m/S 732 mmHg 38%
    12:00 +33°C° 0 mm 7 m/S 732 mmHg 40%
    13:00 +33°C° 0 mm 7 m/S 732 mmHg 41%
    14:00 +33°C° 0 mm 8 m/S 732 mmHg 40%
    15:00 +32°C° 0 mm 8 m/S 732 mmHg 40%
    16:00 +32°C° 0 mm 8 m/S 732 mmHg 40%
    17:00 +29°C° 0 mm 7 m/S 732 mmHg 46%
    18:00 +27°C° 0 mm 7 m/S 732 mmHg 52%
    19:00 +24°C° 0 mm 6 m/S 733 mmHg 58%
    20:00 +23°C° 0 mm 5 m/S 733 mmHg 60%
    21:00 +21°C° 0 mm 5 m/S 733 mmHg 61%
    22:00 +20°C° 0 mm 4 m/S 733 mmHg 63%
    23:00 +19°C° 0 mm 4 m/S 733 mmHg 65%

    1 Juni, Montag

    Zeit Temperatur Niederschläge Wind Luftdruck Luftfeuchtigkeit
    00:00 +18°C° 0 mm 4 m/S 733 mmHg 67%
    01:00 +18°C° 0 mm 3 m/S 733 mmHg 69%
    02:00 +17°C° 0 mm 3 m/S 734 mmHg 71%
    03:00 +16°C° 0 mm 3 m/S 734 mmHg 74%
    04:00 +16°C° 0 mm 3 m/S 734 mmHg 76%
    05:00 +17°C° 0 mm 3 m/S 734 mmHg 71%
    06:00 +18°C° 0 mm 3 m/S 734 mmHg 66%
    07:00 +20°C° 0 mm 3 m/S 735 mmHg 61%
    08:00 +21°C° 0 mm 4 m/S 735 mmHg 56%
    09:00 +22°C° 0 mm 4 m/S 735 mmHg 50%
    10:00 +25°C° 0 mm 5 m/S 735 mmHg 44%
    11:00 +25°C° 0 mm 5 m/S 735 mmHg 42%
    12:00 +26°C° 0 mm 5 m/S 735 mmHg 40%
    13:00 +27°C° 0 mm 6 m/S 735 mmHg 38%
    14:00 +27°C° 0 mm 6 m/S 735 mmHg 38%
    15:00 +26°C° 0 mm 5 m/S 735 mmHg 39%
    16:00 +26°C° 0 mm 5 m/S 735 mmHg 39%
    17:00 +25°C° 0 mm 4 m/S 735 mmHg 43%
    18:00 +23°C° 0 mm 4 m/S 735 mmHg 48%
    19:00 +22°C° 0 mm 3 m/S 735 mmHg 52%
    20:00 +21°C° 0 mm 3 m/S 736 mmHg 55%
    21:00 +20°C° 0 mm 2 m/S 736 mmHg 58%
    22:00 +18°C° 0 mm 2 m/S 736 mmHg 61%
    23:00 +18°C° 0 mm 2 m/S 736 mmHg 64%

    2 Juni, Dienstag

    Zeit Temperatur Niederschläge Wind Luftdruck Luftfeuchtigkeit
    00:00 +18°C° 0 mm 1 m/S 736 mmHg 66%
    01:00 +16°C° 0 mm 1 m/S 736 mmHg 69%
    02:00 +16°C° 0 mm 1 m/S 736 mmHg 71%
    03:00 +16°C° 0 mm 1 m/S 736 mmHg 72%
    04:00 +14°C° 0 mm 0 m/S 736 mmHg 74%
    05:00 +16°C° 0 mm 0 m/S 736 mmHg 68%
    06:00 +20°C° 0 mm 1 m/S 736 mmHg 62%
    07:00 +21°C° 0 mm 1 m/S 737 mmHg 56%
    08:00 +23°C° 0 mm 1 m/S 736 mmHg 50%
    09:00 +24°C° 0 mm 1 m/S 736 mmHg 44%
    10:00 +26°C° 0 mm 1 m/S 736 mmHg 37%
    11:00 +26°C° 0 mm 2 m/S 736 mmHg 34%
    12:00 +27°C° 0 mm 2 m/S 736 mmHg 31%
    13:00 +28°C° 0 mm 2 m/S 736 mmHg 28%
    14:00 +29°C° 0 mm 2 m/S 736 mmHg 27%
    15:00 +29°C° 0 mm 2 m/S 736 mmHg 25%
    16:00 +29°C° 0 mm 2 m/S 736 mmHg 24%
    17:00 +29°C° 0 mm 2 m/S 735 mmHg 28%
    18:00 +28°C° 0 mm 2 m/S 735 mmHg 31%
    19:00 +27°C° 0 mm 2 m/S 735 mmHg 35%
    20:00 +25°C° 0 mm 3 m/S 735 mmHg 36%
    21:00 +24°C° 0 mm 3 m/S 735 mmHg 38%
    22:00 +21°C° 0 mm 4 m/S 734 mmHg 40%
    23:00 +21°C° 0 mm 4 m/S 734 mmHg 41%

    3 Juni, Mittwoch

    Zeit Temperatur Niederschläge Wind Luftdruck Luftfeuchtigkeit
    00:00 +20°C° 0 mm 4 m/S 734 mmHg 43%
    01:00 +20°C° 0 mm 4 m/S 734 mmHg 44%
    02:00 +20°C° 0 mm 4 m/S 733 mmHg 45%
    03:00 +19°C° 0 mm 4 m/S 733 mmHg 46%
    04:00 +19°C° 0 mm 4 m/S 733 mmHg 47%
    05:00 +20°C° 0.1 mm 4 m/S 733 mmHg 47%
    06:00 +21°C° 0.1 mm 5 m/S 733 mmHg 46%
    07:00 +22°C° 0.1 mm 5 m/S 732 mmHg 46%
    08:00 +23°C° 0.5 mm 5 m/S 732 mmHg 45%
    09:00 +25°C° 0.5 mm 4 m/S 732 mmHg 44%
    10:00 +26°C° 0.5 mm 4 m/S 732 mmHg 43%
    11:00 +28°C° 0.4 mm 4 m/S 732 mmHg 40%
    12:00 +29°C° 0.4 mm 3 m/S 732 mmHg 38%
    13:00 +31°C° 0.4 mm 3 m/S 731 mmHg 36%
    14:00 +31°C° 0 mm 3 m/S 731 mmHg 35%
    15:00 +33°C° 0 mm 4 m/S 731 mmHg 34%
    16:00 +34°C° 0 mm 4 m/S 731 mmHg 33%
    17:00 +32°C° 0 mm 5 m/S 731 mmHg 40%
    18:00 +29°C° 0 mm 6 m/S 731 mmHg 47%
    19:00 +28°C° 0 mm 6 m/S 731 mmHg 54%
    20:00 +26°C° 0 mm 6 m/S 731 mmHg 61%
    21:00 +23°C° 0 mm 6 m/S 731 mmHg 68%
    22:00 +21°C° 0 mm 5 m/S 732 mmHg 74%
    23:00 +20°C° 0 mm 5 m/S 732 mmHg 78%
    Mehr zeigen